Weather History for Ibiza, Spain

Change the Weather History Date:

Friday, October 26, 2012

  Actual Average Record
Temperature  
Mean Temperature 70 °F -  
Max Temperature 73 °F 65 °F 81 °F (2013)
Min Temperature 68 °F 54 °F 48 °F (2010)
Cooling Degree Days 6    
Growing Degree Days 20 (Base 50)    
Moisture  
Dew Point 66 °F    
Average Humidity 88    
Maximum Humidity 100    
Minimum Humidity 64    
Precipitation  
Precipitation 0.00 in 0.07 in - ()
Sea Level Pressure  
Sea Level Pressure 29.60 in    
Wind  
Wind Speed 13 mph ()    
Max Wind Speed 26 mph    
Max Gust Speed -    
Visibility 6.4 miles    
Events      
Averages and records for this station are not official NWS values.
T = Trace of Precipitation, MM = Missing Value Source: Averaged Metar Reports

Daily Weather History Graph

Daily Weather History Graph

Search for Another Location

Airport:

Trip Planner

Search our weather history database for the weather conditions in past years. The results will help you decide how hot, cold, wet, or windy it might be!

Date:

Astronomy

Oct. 26, 2012 Rise Set
Actual Time 8:15 AM CEST 7:00 PM CEST
Civil Twilight 7:48 AM CEST 7:28 PM CEST
Nautical Twilight 7:16 AM CEST 7:59 PM CEST
Astronomical Twilight 6:45 AM CEST 8:30 PM CEST
Moon 5:07 PM CEST (10/26) 4:58 AM CEST (10/26)
Length of Visible Light 11h 39m
Length of Day
10h 45m
Waxing Gibbous, 89% of the Moon is Illuminated
Oct 26
Waxing Gibbous
Oct 29
Full
Nov 7
Last Quarter
Nov 13
New
Nov 20
First Quarter

Hourly Weather History & Observations

Time (CEST) Temp. Dew Point Humidity Pressure Visibility Wind Dir Wind Speed Gust Speed Precip Events Conditions
12:00 AM 69.8 °F 68.0 °F 94% 29.71 in 6.2 mi SSE 3.5 mph - N/A   Scattered Clouds
12:30 AM 69.8 °F 68.0 °F 94% 29.71 in 6.2 mi SSE 3.5 mph - N/A   Scattered Clouds
1:00 AM 69.8 °F 68.0 °F 94% 29.68 in 6.2 mi Variable 2.3 mph - N/A   Scattered Clouds
1:30 AM 69.8 °F 68.0 °F 94% 29.68 in 6.2 mi SSW 8.1 mph - N/A   Scattered Clouds
2:00 AM 70 °F 67 °F 85% 29.69 in 9 mi SW 10.4 mph - -   Partly Cloudy
2:00 AM 69.8 °F 68.0 °F 94% 29.68 in 6.2 mi SW 9.2 mph - N/A   Scattered Clouds
2:30 AM 69.8 °F 68.0 °F 94% 29.68 in 6.2 mi SW 12.7 mph - N/A   Scattered Clouds
3:00 AM 68.0 °F 68.0 °F 100% 29.65 in 6.2 mi SW 9.2 mph - N/A   Scattered Clouds
3:30 AM 69.8 °F 68.0 °F 94% 29.68 in 6.2 mi SW 11.5 mph - N/A   Scattered Clouds
4:00 AM 69.8 °F 68.0 °F 94% 29.65 in 6.2 mi SW 13.8 mph - N/A   Scattered Clouds
4:30 AM 69.8 °F 68.0 °F 94% 29.65 in 6.2 mi WSW 12.7 mph - N/A   Scattered Clouds
5:30 AM 68.0 °F 66.2 °F 94% 29.62 in 6.2 mi SW 18.4 mph - N/A   Mostly Cloudy
6:00 AM 68.0 °F 66.2 °F 94% 29.62 in 6.2 mi SW 20.7 mph - N/A   Mostly Cloudy
6:30 AM 68.0 °F 66.2 °F 94% 29.62 in 6.2 mi SW 17.3 mph - N/A   Mostly Cloudy
7:00 AM 68.0 °F 66.2 °F 94% 29.62 in 6.2 mi SW 16.1 mph - N/A   Mostly Cloudy
7:30 AM 68.0 °F 66.2 °F 94% 29.65 in 6.2 mi SW 16.1 mph - N/A   Scattered Clouds
8:00 AM 68 °F 62 °F 77% 29.65 in 9 mi SW 19.6 mph - -   Partly Cloudy
8:00 AM 68.0 °F 64.4 °F 88% 29.62 in 6.2 mi SW 19.6 mph - N/A   Scattered Clouds
8:30 AM 68.0 °F 66.2 °F 94% 29.62 in 6.2 mi WSW 18.4 mph - N/A   Scattered Clouds
9:00 AM 68.0 °F 64.4 °F 88% 29.62 in 6.2 mi SW 18.4 mph - N/A   Scattered Clouds
9:30 AM 68.0 °F 64.4 °F 88% 29.62 in 6.2 mi SW 18.4 mph - N/A   Scattered Clouds
10:00 AM 69.8 °F 64.4 °F 83% 29.62 in 6.2 mi SW 20.7 mph - N/A   Scattered Clouds
10:30 AM 69.8 °F 66.2 °F 88% 29.65 in 6.2 mi WSW 20.7 mph - N/A   Scattered Clouds
11:00 AM 71.6 °F 66.2 °F 83% 29.62 in 6.2 mi WSW 20.7 mph - N/A   Partly Cloudy
11:30 AM 69.8 °F 64.4 °F 83% 29.62 in 6.2 mi WSW 19.6 mph - N/A   Scattered Clouds
12:00 PM 69.8 °F 64.4 °F 83% 29.62 in 6.2 mi WSW 21.9 mph - N/A   Scattered Clouds
12:30 PM 71.6 °F 66.2 °F 83% 29.62 in 6.2 mi SW 19.6 mph - N/A   Scattered Clouds
1:00 PM 71.6 °F 64.4 °F 78% 29.59 in 6.2 mi WSW 23.0 mph - N/A   Scattered Clouds
1:30 PM 71.6 °F 64.4 °F 78% 29.59 in 6.2 mi WSW 21.9 mph - N/A   Scattered Clouds
2:00 PM 73 °F 63 °F 64% 29.59 in 9 mi SW 21.9 mph - -   Mostly Cloudy
2:00 PM 71.6 °F 64.4 °F 78% 29.59 in 6.2 mi SW 20.7 mph - N/A   Scattered Clouds
3:00 PM 71.6 °F 62.6 °F 73% 29.56 in 6.2 mi SW 26.5 mph - N/A   Partly Cloudy
3:30 PM 71.6 °F 62.6 °F 73% 29.56 in 6.2 mi WSW 23.0 mph - N/A   Partly Cloudy
4:00 PM 69.8 °F 64.4 °F 83% 29.56 in 6.2 mi SW 21.9 mph - N/A   Partly Cloudy
5:00 PM 69.8 °F 64.4 °F 83% 29.53 in 6.2 mi WSW 21.9 mph - N/A   Scattered Clouds
5:30 PM 69.8 °F 64.4 °F 83% 29.53 in 6.2 mi WSW 19.6 mph - N/A   Scattered Clouds
6:00 PM 68.0 °F 64.4 °F 88% 29.53 in 6.2 mi WSW 18.4 mph - N/A   Scattered Clouds
6:30 PM 68.0 °F 64.4 °F 88% 29.53 in 6.2 mi SW 16.1 mph - N/A   Scattered Clouds
7:00 PM 68.0 °F 64.4 °F 88% 29.53 in 6.2 mi SW 17.3 mph - N/A   Scattered Clouds
7:30 PM 68.0 °F 64.4 °F 88% 29.53 in 6.2 mi SW 17.3 mph - N/A   Scattered Clouds
8:00 PM 68 °F 64 °F 81% 29.55 in 9 mi WSW 18.4 mph - -   Mostly Cloudy
8:00 PM 68.0 °F 64.4 °F 88% 29.53 in 6.2 mi WSW 17.3 mph - N/A   Scattered Clouds
8:30 PM 68.0 °F 64.4 °F 88% 29.53 in 6.2 mi WSW 13.8 mph - N/A   Scattered Clouds
9:00 PM 68.0 °F 66.2 °F 94% 29.53 in 6.2 mi WSW 18.4 mph - N/A   Scattered Clouds
9:30 PM 68.0 °F 66.2 °F 94% 29.53 in 6.2 mi WSW 16.1 mph - N/A   Scattered Clouds
10:00 PM 68.0 °F 66.2 °F 94% 29.53 in 6.2 mi SW 15.0 mph - N/A   Scattered Clouds
10:30 PM 68.0 °F 66.2 °F 94% 29.53 in 6.2 mi SW 11.5 mph - N/A   Partly Cloudy
11:00 PM 69.8 °F 64.4 °F 83% 29.53 in 6.2 mi WSW 13.8 mph - N/A   Scattered Clouds
11:30 PM 68.0 °F 66.2 °F 94% 29.53 in 6.2 mi WSW 13.8 mph - N/A   Partly Cloudy